Location: Étang Rond
(42.7927°N, 1.0661°E)
Time: 22:36:35
(UTC+00:00)

Cosmos 2237 Rocket - Pass Details

Date: 08 November 2025
Orbit: 835 x 847 km, 71.0° (Epoch: 12 December)

Event Time Altitude Azimuth Distance (km) Brightness Sun altitude
Rises 05:13:18 0° 203° (SSW) 3,390 5.2 -15.9°
Reaches altitude 10° 05:15:44 10° 203° (SSW) 2,457 4.5 -15.5°
Maximum altitude 05:21:24 88° 291° (WNW) 849 2.2 -14.5°
Drops below altitude 10° 05:27:05 10° 24° (NNE) 2,466 4.8 -13.5°
Sets 05:29:31 0° 25° (NNE) 3,402 5.5 -13.0°
